ATLAS 5 CENTAUR DEB, 49343

Orbit data source: Space-Track

ATLAS 5 CENTAUR DEB, 49343 is space debris in HEO originally from a launch on Wed, 17 Oct 2018 UTC launched from the Air Force Eastern Test Range (AFETR). Debris objects in space refer to the collection of defunct objects orbiting the Earth. Examples of debris include non-operational satellites, rocket bodies, and fragments generated from explosions, collisions, or faulty payload assembly.

Loading next visibility...
Identifier
49343, 2018-079EU
Orbit
HEO
Country
Flag of USUS
Related business
Flag of USUnited Launch Alliance/Lockheed Martin (US)
Manufacturer
ULA Decatur
Mission
Spacecraft
Bus & Motor
Unknown
Mass
Unknown
Launch date (UTC)
2018-10-17 (7 years ago)
Launch vehicle
Unknown
Launch site
Air Force Eastern Test Range (AFETR)
Object type
Payload
Rocket body
Debris
Shape & HBR
Unknown shape, 1.1 m
Radar Cross Section
Large (>1 m²)

Expand to show TLE details & history
Last TLE update: 1 week ago

TLE from 1 week ago
0 ATLAS 5 CENTAUR DEB
1 49343U 18079EU  25294.24811122 -.00000062  00000-0  00000-0 0  9990
2 49343  12.6175  78.7538 4609398 226.9589  83.9762  1.74647074 26457
Epoch: 2025-10-21T05:57Z
TLE epoch observation values (Epoch: 2025-10-21T05:57:16.809Z)
Latitude
-0.00002°
Longitude
-40.56262°
Altitude
27,066.228 km
Speed
3.186 km/s
True Right ascension
05h 14m 47s
True Declination
0° 00' 00"
Sunlit
Object was in daylight at epoch
Visualization orbit readout
Latitude
Unknown
Longitude
Unknown
Altitude
Unknown
Speed
Unknown
Apparent Right ascension
Unknown
Apparent Declination
Unknown
Sunlit
N/A
Visualization observer readout
Local Sidereal Time
08:31:26
Azimuth
Unknown
Elevation
Unknown
Doppler factor
Unknown
Orbital elements
Apogee altitude
36,177.475 km
Perigee altitude
9,324.109 km
Semi-major axis
29,128.929 km
Eccentricity
0.46094
Inclination
12.6175°
RAAN
78.7538°
Arg. of periapsis
226.9589°
True anomaly
133.11218°
Mean anomaly
83.9762°
Eccentric anomaly
108.95413°
Mean motion
0.43657 °/min
Orbital period
824.61 mins
BSTAR
0
Loading maneuver chart data...
Computing Atmospheric mass density...

Documentation

Showing up to 5 results
|